Orbital Elements at Epoch 2459000.5 (2020-May-31.0) TDB
Reference: JPL 35 (heliocentric ecliptic J2000)
Element | Value | Uncertainty (1-sigma) | Units |
e | .06922834358008972 | 4.3563e-08 | |
a | 2.129365251570234 | 6.8276e-09 | au |
q | 1.981952822327026 | 9.2116e-08 | au |
i | 2.362237857368782 | 4.8766e-06 | deg |
node | 176.7367713396285 | 7.5555e-05 | deg |
peri | 162.7133969311802 | 8.1495e-05 | deg |
M | 216.7585413349978 | 3.1943e-05 | deg |
tp | 2459452.085413006665 (2021-Aug-25.58541301) | 0.00010118 | TDB |
period | 1134.94200769487 3.11 | 5.4586e-06 1.494e-08 | d yr |
n | .317196823766511 | 1.5256e-09 | deg/d |
Q | 2.276777680813443 | 7.3003e-09 | au |
|
| | Orbit Determination Parameters
Additional Information
|